Starlink 4350

operational
NORAD ID: 53045 Int'l Des: 2022-077 Owner: SPXS Country: US Constellation: starlink
LEOCIRCULARRETROGRADESSO

关于 Starlink 4350

正在加载描述...

实时位置

正在加载3D地球...

即将过境

高度历史

Altitude vs Time

uPlot chart will show altitude changes over time

两行轨道根数

1 53045U 22077C 25304.73610078 -.00000772 00000-0 -49320-4 0 9991
2 53045 97.6031 124.1059 0001754 80.4077 279.7348 15.05644343181588
Epoch: Oct 31, 2025 • Age: 16 hours

当前状态

高度 576.1 km
速度 7.57 km/s
星下点 -67.61°S, 37.04°W
发射日期 Jul 11, 2022
运行时间 3.3 years
类型 internet

技术详情

分类 Payload
质量 297.00 kg
干质量 275.00 kg
总质量 297.00 kg
长度 0.20 m
直径 2.80 m
跨度 9.00 m
形状 Box + pan
制造商 SPXS
平台类型 Starlink
阶段状态 In Orbit
所有者/国家 SPXS/US

大型星座

Loading constellations...